Weather History for KEED - November, 2012

Change the Weather History Date:

Monday, November 12, 2012

  Actual Average (KIGM) Record (KIGM)
Temperature  
Mean Temperature 57 °F 52 °F  
Max Temperature 66 °F 66 °F 85 °F (1914)
Min Temperature 48 °F 38 °F 22 °F (1950)
Degree Days  
Heating Degree Days 8 13  
Month to date heating degree days 131  
Since 1 July heating degree days 270  
Cooling Degree Days 0 0  
Month to date cooling degree days 0  
Year to date cooling degree days 2092  
Growing Degree Days 7 (Base 50)    
Moisture  
Dew Point 14 °F    
Average Humidity 20    
Maximum Humidity 28    
Minimum Humidity 12    
Precipitation  
Precipitation 0.00 in 0.02 in 1.35 in (1985)
Month to date precipitation 0.28  
Year to date precipitation 7.28  
Sea Level Pressure  
Sea Level Pressure 30.24 in    
Wind  
Wind Speed 10 mph (NNW)    
Max Wind Speed 21 mph    
Max Gust Speed 28 mph    
Visibility 10 miles    
Events      
T = Trace of Precipitation, MM = Missing Value Source: NWS Daily Summary

Daily Weather History Graph

Daily Weather History Graph

Search for Another Location

Airport or City:

Trip Planner

Search our weather history database for the weather conditions in past years. The results will help you decide how hot, cold, wet, or windy it might be!

Date:

Astronomy

Nov. 12, 2012 Rise Set
Actual Time 6:10 AM PST 4:34 PM PST
Civil Twilight 5:43 AM PST 5:01 PM PST
Nautical Twilight 5:13 AM PST 5:31 PM PST
Astronomical Twilight 4:43 AM PST 6:01 PM PST
Moon 4:42 AM PST (11/12) 3:42 PM PST (11/12)
Length of Visible Light 11h 18m
Length of Day
10h 24m
Waning Crescent, 2% of the Moon is Illuminated
Nov 12
Waning Crescent
Nov 13
New
Nov 20
First Quarter
Nov 28
Full
Dec 6
Last Quarter

Hourly Weather History & Observations

Time (PST) Temp. Dew Point Humidity Pressure Visibility Wind Dir Wind Speed Gust Speed Precip Events Conditions
12:56 AM 48.0 °F 14.0 °F 26% 30.34 in 10.0 mi NNW 6.9 mph - N/A   Clear
1:56 AM 48.0 °F 14.0 °F 26% 30.32 in 10.0 mi NNW 8.1 mph - N/A   Clear
2:56 AM 48.9 °F 15.1 °F 26% 30.32 in 10.0 mi North 8.1 mph - N/A   Clear
3:56 AM 48.9 °F 15.1 °F 26% 30.32 in 10.0 mi North 9.2 mph - N/A   Clear
4:56 AM 48.9 °F 17.1 °F 28% 30.32 in 10.0 mi North 6.9 mph - N/A   Clear
5:56 AM 48.9 °F 17.1 °F 28% 30.33 in 10.0 mi North 8.1 mph - N/A   Clear
6:56 AM 50.0 °F 18.0 °F 28% 30.34 in 10.0 mi North 9.2 mph - N/A   Clear
7:56 AM 53.1 °F 19.0 °F 26% 30.34 in 10.0 mi North 9.2 mph - N/A   Clear
8:56 AM 55.9 °F 19.0 °F 24% 30.32 in 10.0 mi North 15.0 mph - N/A   Clear
9:56 AM 60.1 °F 16.0 °F 18% 30.31 in 10.0 mi NNE 18.4 mph - N/A   Clear
10:56 AM 62.1 °F 16.0 °F 17% 30.27 in 10.0 mi North 18.4 mph 27.6 mph N/A   Clear
11:56 AM 64.0 °F 15.1 °F 15% 30.22 in 10.0 mi NNE 20.7 mph - N/A   Clear
12:56 PM 66.0 °F 15.1 °F 14% 30.19 in 10.0 mi NNE 15.0 mph - N/A   Clear
1:56 PM 66.9 °F 14.0 °F 13% 30.17 in 10.0 mi NNE 16.1 mph - N/A   Clear
2:56 PM 66.9 °F 12.9 °F 12% 30.16 in 10.0 mi NNE 16.1 mph - N/A   Clear
3:56 PM 64.9 °F 14.0 °F 14% 30.16 in 10.0 mi North 12.7 mph - N/A   Clear
4:56 PM 61.0 °F 15.1 °F 17% 30.16 in 10.0 mi NNW 5.8 mph - N/A   Clear
5:56 PM 59.0 °F 12.0 °F 16% 30.17 in 10.0 mi NW 8.1 mph - N/A   Clear
6:56 PM 59.0 °F 12.9 °F 16% 30.18 in 10.0 mi NNW 8.1 mph - N/A   Clear
7:56 PM 57.9 °F 14.0 °F 18% 30.18 in 10.0 mi NNW 8.1 mph - N/A   Clear
8:56 PM 54.0 °F 10.9 °F 18% 30.19 in 10.0 mi WSW 8.1 mph - N/A   Clear
9:56 PM 53.1 °F 10.0 °F 18% 30.19 in 10.0 mi WSW 6.9 mph - N/A   Clear
10:56 PM 50.0 °F 10.9 °F 21% 30.18 in 10.0 mi WSW 4.6 mph - N/A   Clear
11:56 PM 50.0 °F 9.0 °F 19% 30.19 in 10.0 mi WNW 6.9 mph - N/A   Clear